Weather History for KXPY - January, 2014

Change the Weather History Date:

Saturday, January 11, 2014

  Actual Average Record
Temperature  
Mean Temperature 62 °F -  
Max Temperature 68 °F - - ()
Min Temperature 55 °F - - ()
Degree Days  
Heating Degree Days 4    
Growing Degree Days 12 (Base 50)    
Moisture  
Dew Point 58 °F    
Average Humidity 91    
Maximum Humidity 100    
Minimum Humidity 55    
Precipitation  
Precipitation 0.00 in - - ()
Sea Level Pressure  
Sea Level Pressure 30.00 in    
Wind  
Wind Speed 11 mph (West)    
Max Wind Speed 18 mph    
Max Gust Speed 26 mph    
Visibility 4 miles    
Events Fog    
T = Trace of Precipitation, MM = Missing Value Source: NWS Daily Summary

Daily Weather History Graph

Daily Weather History Graph

Search for Another Location

Airport or City:

Trip Planner

Search our weather history database for the weather conditions in past years. The results will help you decide how hot, cold, wet, or windy it might be!

Date:

Astronomy

Jan. 11, 2014 Rise Set
Actual Time 6:55 AM CST 5:21 PM CST
Civil Twilight 6:30 AM CST 5:47 PM CST
Nautical Twilight 6:00 AM CST 6:16 PM CST
Astronomical Twilight 5:32 AM CST 6:45 PM CST
Moon 2:02 PM CST (1/11) 3:04 AM CST (1/11)
Length of Visible Light 11h 17m
Length of Day
10h 25m
Waxing Gibbous, 83% of the Moon is Illuminated
Jan 11
Waxing Gibbous
Jan 15
Full
Jan 23
Last Quarter
Jan 30
New
Feb 6
First Quarter

Hourly Weather History & Observations

Time (CST) Temp. Dew Point Humidity Pressure Visibility Wind Dir Wind Speed Gust Speed Precip Events Conditions
12:15 AM 66.2 °F 66.2 °F 100% 29.94 in 0.2 mi South 10.4 mph 20.7 mph N/A Fog Fog
12:35 AM 66.2 °F 66.2 °F 100% 29.93 in 0.5 mi South 8.1 mph - N/A Fog Fog
12:55 AM 66.2 °F 66.2 °F 100% 29.92 in 0.8 mi South 10.4 mph - N/A   Overcast
1:15 AM 66.2 °F 64.4 °F 94% 29.92 in 3.0 mi SSW 6.9 mph - N/A   Overcast
1:35 AM 66.2 °F 64.4 °F 94% 29.92 in 4.0 mi SSW 6.9 mph - N/A   Overcast
1:55 AM 66.2 °F 64.4 °F 94% 29.92 in 3.0 mi SSW 8.1 mph - N/A   Overcast
2:15 AM 66.2 °F 64.4 °F 94% 29.91 in 4.0 mi SSW 9.2 mph - N/A   Mostly Cloudy
2:35 AM 66.2 °F 64.4 °F 94% 29.91 in 5.0 mi SSW 11.5 mph - N/A   Scattered Clouds
2:55 AM 68.0 °F 66.2 °F 94% 29.91 in 6.0 mi SSW 11.5 mph - N/A   Mostly Cloudy
3:15 AM 66.2 °F 66.2 °F 100% 29.91 in 6.0 mi SSW 11.5 mph - N/A   Overcast
3:35 AM 66.2 °F 66.2 °F 100% 29.91 in 5.0 mi SSW 10.4 mph 17.3 mph N/A   Mostly Cloudy
3:55 AM 66.2 °F 66.2 °F 100% 29.91 in 5.0 mi SSW 11.5 mph 17.3 mph N/A   Overcast
4:15 AM 66.2 °F 66.2 °F 100% 29.90 in 4.0 mi SSW 12.7 mph - N/A   Overcast
4:35 AM 66.2 °F 66.2 °F 100% 29.89 in 5.0 mi SSW 11.5 mph 17.3 mph N/A   Overcast
4:55 AM 66.2 °F 66.2 °F 100% 29.89 in 5.0 mi SSW 12.7 mph 18.4 mph N/A   Overcast
5:15 AM 68.0 °F 66.2 °F 94% 29.89 in 5.0 mi SSW 12.7 mph 19.6 mph N/A   Overcast
5:35 AM 66.2 °F 66.2 °F 100% 29.89 in 3.0 mi SSW 16.1 mph 21.9 mph N/A   Overcast
5:55 AM 66.2 °F 66.2 °F 100% 29.90 in 4.0 mi SW 12.7 mph 21.9 mph N/A   Overcast
6:15 AM 64.4 °F 64.4 °F 100% 29.92 in 0.8 mi West 12.7 mph 24.2 mph N/A   Overcast
6:35 AM 64.4 °F 64.4 °F 100% 29.91 in 0.8 mi West 15.0 mph 26.5 mph N/A   Overcast
6:55 AM 66.2 °F 66.2 °F 100% 29.92 in 1.0 mi WSW 18.4 mph 26.5 mph N/A   Overcast
7:15 AM 66.2 °F 64.4 °F 94% 29.93 in 3.0 mi West 15.0 mph 24.2 mph N/A   Overcast
7:35 AM 64.4 °F 62.6 °F 94% 29.95 in 2.5 mi West 11.5 mph 18.4 mph N/A   Overcast
7:55 AM 64.4 °F 64.4 °F 100% 29.96 in 3.0 mi WSW 16.1 mph 24.2 mph N/A   Overcast
8:15 AM 64.4 °F 64.4 °F 100% 29.97 in 1.5 mi WSW 13.8 mph - N/A   Overcast
8:35 AM 64.4 °F 64.4 °F 100% 29.99 in 0.8 mi WSW 17.3 mph - N/A   Overcast
8:55 AM 64.4 °F 64.4 °F 100% 29.99 in 0.2 mi West 13.8 mph 20.7 mph N/A Fog Fog
9:15 AM 64.4 °F 64.4 °F 100% 30.01 in 0.8 mi West 11.5 mph 19.6 mph N/A   Overcast
9:35 AM 62.6 °F 62.6 °F 100% 30.02 in 0.8 mi West 12.7 mph - N/A   Overcast
9:55 AM 62.6 °F 60.8 °F 94% 30.02 in 0.2 mi West 12.7 mph 18.4 mph N/A Fog Fog
10:15 AM 60.8 °F 60.8 °F 100% 30.03 in 0.2 mi WNW 10.4 mph - N/A Fog Fog
10:35 AM 60.8 °F 60.8 °F 100% 30.03 in 0.2 mi West 10.4 mph 17.3 mph N/A Fog Fog
10:55 AM 62.6 °F 60.8 °F 94% 30.02 in 3.0 mi West 13.8 mph - N/A   Mostly Cloudy
11:15 AM 60.8 °F 60.8 °F 100% 30.01 in 4.0 mi West 11.5 mph 18.4 mph N/A   Mostly Cloudy
11:35 AM 60.8 °F 60.8 °F 100% 29.99 in 3.0 mi West 15.0 mph - N/A   Overcast
11:55 AM 60.8 °F 60.8 °F 100% 29.99 in 1.0 mi West 12.7 mph 19.6 mph N/A   Overcast
12:15 PM 60.8 °F 59.0 °F 94% 29.98 in 1.2 mi West 15.0 mph 23.0 mph N/A   Overcast
12:35 PM 60.8 °F 59.0 °F 94% 29.98 in 4.0 mi West 16.1 mph - N/A   Overcast
12:55 PM 60.8 °F 60.8 °F 100% 29.97 in 4.0 mi West 16.1 mph - N/A   Mostly Cloudy
1:15 PM 60.8 °F 60.8 °F 100% 29.97 in 4.0 mi West 15.0 mph 21.9 mph N/A   Mostly Cloudy
1:35 PM 60.8 °F 59.0 °F 94% 29.97 in 1.8 mi West 12.7 mph 19.6 mph N/A   Overcast
1:55 PM 60.8 °F 59.0 °F 94% 29.97 in 0.2 mi West 15.0 mph - N/A Fog Fog
2:15 PM 59.0 °F 59.0 °F 100% 29.97 in 0.2 mi West 15.0 mph - N/A Fog Fog
2:35 PM 59.0 °F 59.0 °F 100% 29.97 in 0.2 mi West 13.8 mph 20.7 mph N/A Fog Fog
2:55 PM 59.0 °F 59.0 °F 100% 29.97 in 0.2 mi West 16.1 mph - N/A Fog Fog
3:15 PM 59.0 °F 57.2 °F 94% 29.97 in 0.2 mi West 13.8 mph 20.7 mph N/A Fog Fog
3:35 PM 59.0 °F 57.2 °F 94% 29.98 in 0.2 mi West 15.0 mph 21.9 mph N/A Fog Fog
3:55 PM 59.0 °F 57.2 °F 94% 29.99 in 0.2 mi West 15.0 mph - N/A Fog Fog
4:15 PM 57.2 °F 57.2 °F 100% 30.00 in 0.2 mi West 12.7 mph - N/A Fog Fog
4:35 PM 57.2 °F 57.2 °F 100% 30.01 in 0.2 mi West 9.2 mph - N/A Fog Fog
4:55 PM 57.2 °F 57.2 °F 100% 30.02 in 0.8 mi West 10.4 mph - N/A   Overcast
5:15 PM 57.2 °F 57.2 °F 100% 30.02 in 4.0 mi West 10.4 mph - N/A   Partly Cloudy
5:35 PM 57.2 °F 57.2 °F 100% 30.03 in 6.0 mi West 9.2 mph - N/A   Clear
5:55 PM 57.2 °F 57.2 °F 100% 30.04 in 8.0 mi West 6.9 mph - N/A   Clear
6:15 PM 57.2 °F 57.2 °F 100% 30.05 in 9.0 mi WNW 6.9 mph - N/A   Clear
6:35 PM 57.2 °F 55.4 °F 94% 30.05 in 10.0 mi WNW 6.9 mph - N/A   Clear
6:55 PM 57.2 °F 55.4 °F 94% 30.06 in 10.0 mi West 3.5 mph - N/A   Clear
7:15 PM 57.2 °F 53.6 °F 88% 30.08 in 10.0 mi WNW 4.6 mph - N/A   Clear
7:35 PM 57.2 °F 53.6 °F 88% 30.09 in 10.0 mi Calm Calm - N/A   Clear
7:55 PM 57.2 °F 50.0 °F 77% 30.11 in 10.0 mi NW 4.6 mph - N/A   Clear
8:15 PM 57.2 °F 44.6 °F 63% 30.12 in 10.0 mi NNW 8.1 mph - N/A   Clear
8:35 PM 57.2 °F 42.8 °F 59% 30.12 in 10.0 mi NNW 8.1 mph - N/A   Clear
8:55 PM 57.2 °F 41.0 °F 55% 30.13 in 10.0 mi NNW 9.2 mph - N/A   Clear
9:15 PM 57.2 °F 41.0 °F 55% 30.13 in 10.0 mi NNW 9.2 mph - N/A   Clear
9:35 PM 57.2 °F 41.0 °F 55% 30.14 in 10.0 mi NNW 8.1 mph - N/A   Clear
9:55 PM 57.2 °F 41.0 °F 55% 30.14 in 10.0 mi NNW 6.9 mph - N/A   Clear
10:15 PM 55.4 °F 41.0 °F 58% 30.14 in 10.0 mi NNW 6.9 mph - N/A   Clear
10:35 PM 55.4 °F 41.0 °F 58% 30.14 in 10.0 mi NNW 6.9 mph - N/A   Clear
10:55 PM 55.4 °F 41.0 °F 58% 30.14 in 10.0 mi NNW 4.6 mph - N/A   Clear
11:15 PM 55.4 °F 42.8 °F 63% 30.14 in 10.0 mi Calm Calm - N/A   Clear
11:35 PM 55.4 °F 42.8 °F 63% 30.14 in 10.0 mi Calm Calm - N/A   Clear
11:55 PM 55.4 °F 41.0 °F 58% 30.14 in 10.0 mi Calm Calm - N/A   Clear